SNG2049 ZSFZ-ZGSD

Flight info

Callsign SNG2049
Flight time 1h 24m
Altitude 30100
Route ZSFZ/03 DOVPU W643 ATSAB A470 BEBEM R200 GUBLO W509 NLG W23
Aircraft A321/M-SDE3FGHIRWY/LB1D1

Departure

Time 2026-04-18 04:21
Airport Fuzhou Changle International Airport (ZSFZ)

Arrival

Time 2026-04-18 05:45
Airport Zhuhai Jinwan Airport (ZGSD)
Time Latitude Longitude Altitude Speed Heading
2026-04-18 04:14 25.93599 119.66842 24 ft 0 kts 207°
2026-04-18 04:15 25.93598 119.66842 27 ft 1 kts 207°
2026-04-18 04:15 25.93566 119.66823 25 ft 9 kts 207°
2026-04-18 04:16 25.93485 119.66777 23 ft 17 kts 207°
2026-04-18 04:16 25.93365 119.66711 23 ft 17 kts 207°
2026-04-18 04:16 25.93275 119.66661 23 ft 12 kts 207°
2026-04-18 04:16 25.93195 119.66615 23 ft 16 kts 207°
2026-04-18 04:17 25.93067 119.66544 23 ft 25 kts 206°
2026-04-18 04:17 25.92942 119.66462 23 ft 14 kts 239°
2026-04-18 04:17 25.92967 119.66340 25 ft 16 kts 294°
2026-04-18 04:17 25.92925 119.66249 24 ft 11 kts 186°
2026-04-18 04:18 25.92840 119.66205 25 ft 20 kts 206°
2026-04-18 04:18 25.92697 119.66126 26 ft 23 kts 206°
2026-04-18 04:18 25.92573 119.66057 23 ft 17 kts 206°
2026-04-18 04:18 25.92459 119.65992 23 ft 22 kts 206°
2026-04-18 04:19 25.92305 119.65905 23 ft 28 kts 206°
2026-04-18 04:19 25.92114 119.65799 23 ft 30 kts 207°
2026-04-18 04:19 25.91992 119.65721 23 ft 14 kts 228°
2026-04-18 04:19 25.92001 119.65638 26 ft 12 kts 295°
2026-04-18 04:20 25.92059 119.65555 23 ft 11 kts 347°
2026-04-18 04:20 25.92118 119.65576 25 ft 7 kts 26°
2026-04-18 04:20 25.92150 119.65593 23 ft 5 kts 26°
2026-04-18 04:20 25.92283 119.65668 25 ft 51 kts 27°
2026-04-18 04:21 25.92790 119.65954 24 ft 110 kts 27°
2026-04-18 04:21 25.93620 119.66421 26 ft 155 kts 27°
2026-04-18 04:21 25.94675 119.67020 234 ft 175 kts 27°
2026-04-18 04:21 25.95784 119.67641 837 ft 179 kts 26°
2026-04-18 04:22 25.96908 119.68269 1390 ft 184 kts 27°
2026-04-18 04:22 25.98119 119.68957 1522 ft 206 kts 27°
2026-04-18 04:22 25.99468 119.69718 1762 ft 227 kts 27°
2026-04-18 04:22 26.00858 119.70587 2416 ft 232 kts 41°
2026-04-18 04:23 26.01695 119.72102 3067 ft 238 kts 79°
2026-04-18 04:23 26.01497 119.73922 3676 ft 245 kts 118°
2026-04-18 04:23 26.00308 119.75253 4306 ft 248 kts 158°
2026-04-18 04:23 25.98626 119.75660 4966 ft 250 kts 181°
2026-04-18 04:24 25.96883 119.75616 5648 ft 252 kts 186°
2026-04-18 04:24 25.95121 119.75479 6349 ft 255 kts 186°
2026-04-18 04:24 25.93336 119.75377 7012 ft 258 kts 185°
2026-04-18 04:24 25.91526 119.75330 7633 ft 262 kts 187°
2026-04-18 04:25 25.89753 119.74901 7844 ft 265 kts 206°
2026-04-18 04:25 25.88073 119.73942 7885 ft 276 kts 211°
2026-04-18 04:25 25.86363 119.72946 7888 ft 278 kts 210°
2026-04-18 04:25 25.84638 119.71970 7887 ft 278 kts 209°
2026-04-18 04:26 25.82909 119.71006 7886 ft 278 kts 209°
2026-04-18 04:26 25.81179 119.70043 7887 ft 278 kts 209°
2026-04-18 04:26 25.79446 119.69076 7887 ft 279 kts 209°
2026-04-18 04:26 25.77715 119.68107 7886 ft 279 kts 209°
2026-04-18 04:27 25.75981 119.67134 7885 ft 279 kts 209°
2026-04-18 04:27 25.74252 119.66164 7884 ft 279 kts 209°
2026-04-18 04:27 25.72521 119.65193 7882 ft 278 kts 209°
2026-04-18 04:27 25.70795 119.64222 7881 ft 279 kts 209°
2026-04-18 04:28 25.69165 119.63083 7878 ft 276 kts 223°
2026-04-18 04:28 25.67889 119.61517 7873 ft 273 kts 238°
2026-04-18 04:28 25.67007 119.59660 7878 ft 273 kts 246°
2026-04-18 04:28 25.66193 119.57750 7878 ft 274 kts 245°
2026-04-18 04:29 25.65372 119.55849 7875 ft 272 kts 245°
2026-04-18 04:29 25.64552 119.53959 7876 ft 272 kts 245°
2026-04-18 04:29 25.63730 119.52067 7876 ft 273 kts 245°
2026-04-18 04:29 25.62905 119.50167 7870 ft 274 kts 245°
2026-04-18 04:30 25.62077 119.48261 7874 ft 274 kts 245°
2026-04-18 04:30 25.61255 119.46363 7872 ft 273 kts 245°
2026-04-18 04:30 25.60433 119.44462 7870 ft 274 kts 245°
2026-04-18 04:30 25.59609 119.42561 7873 ft 273 kts 245°
2026-04-18 04:31 25.58785 119.40662 7869 ft 274 kts 245°
2026-04-18 04:31 25.57959 119.38764 7872 ft 274 kts 245°
2026-04-18 04:31 25.57131 119.36866 7867 ft 273 kts 245°
2026-04-18 04:31 25.56306 119.34974 7870 ft 273 kts 245°
2026-04-18 04:32 25.55480 119.33077 7872 ft 273 kts 245°
2026-04-18 04:32 25.54655 119.31183 7871 ft 273 kts 245°
2026-04-18 04:32 25.53788 119.29317 7868 ft 274 kts 238°
2026-04-18 04:32 25.52540 119.27662 8127 ft 279 kts 227°
2026-04-18 04:33 25.51193 119.26115 8898 ft 280 kts 228°
2026-04-18 04:33 25.49852 119.24547 9636 ft 281 kts 229°
2026-04-18 04:33 25.48506 119.22961 10252 ft 287 kts 229°
2026-04-18 04:33 25.47090 119.21289 10389 ft 309 kts 229°
2026-04-18 04:34 25.45572 119.19498 10507 ft 329 kts 229°
2026-04-18 04:34 25.43959 119.17605 10724 ft 345 kts 229°
2026-04-18 04:34 25.42295 119.15662 11226 ft 350 kts 229°
2026-04-18 04:34 25.40612 119.13705 11802 ft 353 kts 229°
2026-04-18 04:35 25.38911 119.11730 12395 ft 356 kts 229°
2026-04-18 04:35 25.37200 119.09740 12987 ft 358 kts 229°
2026-04-18 04:35 25.35476 119.07736 13572 ft 361 kts 229°
2026-04-18 04:35 25.33736 119.05717 14098 ft 364 kts 229°
2026-04-18 04:36 25.31986 119.03684 14605 ft 366 kts 229°
2026-04-18 04:36 25.30225 119.01636 15113 ft 368 kts 229°
2026-04-18 04:36 25.28458 118.99580 15639 ft 370 kts 229°
2026-04-18 04:36 25.26733 118.97457 16163 ft 371 kts 235°
2026-04-18 04:37 25.25364 118.95050 16686 ft 370 kts 244°
2026-04-18 04:37 25.24165 118.92525 17173 ft 372 kts 244°
2026-04-18 04:37 25.22948 118.89989 17661 ft 374 kts 244°
2026-04-18 04:37 25.21719 118.87447 18131 ft 376 kts 244°
2026-04-18 04:38 25.20479 118.84892 18546 ft 378 kts 244°
2026-04-18 04:38 25.19236 118.82325 18940 ft 380 kts 244°
2026-04-18 04:38 25.17987 118.79742 19333 ft 382 kts 244°
2026-04-18 04:38 25.16734 118.77149 19710 ft 384 kts 244°
2026-04-18 04:39 25.15472 118.74536 20101 ft 386 kts 244°
2026-04-18 04:39 25.14207 118.71914 20496 ft 388 kts 244°
2026-04-18 04:39 25.12933 118.69275 20892 ft 391 kts 244°
2026-04-18 04:39 25.11653 118.66623 21284 ft 393 kts 244°
2026-04-18 04:40 25.10365 118.63959 21721 ft 394 kts 244°
2026-04-18 04:40 25.08856 118.61374 22179 ft 398 kts 234°
2026-04-18 04:40 25.06978 118.59098 22472 ft 403 kts 229°
2026-04-18 04:40 25.05025 118.56867 22843 ft 406 kts 229°
2026-04-18 04:41 25.03057 118.54620 23218 ft 408 kts 229°
2026-04-18 04:41 25.01085 118.52365 23577 ft 410 kts 229°
2026-04-18 04:41 24.99102 118.50092 23890 ft 412 kts 229°
2026-04-18 04:41 24.97117 118.47810 24227 ft 413 kts 229°
2026-04-18 04:42 24.95128 118.45524 24562 ft 414 kts 229°
2026-04-18 04:42 24.93134 118.43234 24899 ft 414 kts 229°
2026-04-18 04:42 24.91135 118.40944 25228 ft 415 kts 229°
2026-04-18 04:42 24.89129 118.38651 25554 ft 416 kts 229°
2026-04-18 04:43 24.87120 118.36359 25892 ft 416 kts 230°
2026-04-18 04:43 24.85109 118.34061 26187 ft 417 kts 230°
2026-04-18 04:43 24.83089 118.31755 26506 ft 418 kts 230°
2026-04-18 04:43 24.81064 118.29449 26811 ft 419 kts 230°
2026-04-18 04:44 24.79031 118.27136 27110 ft 420 kts 230°
2026-04-18 04:44 24.77000 118.24820 27399 ft 421 kts 230°
2026-04-18 04:44 24.74962 118.22495 27681 ft 422 kts 230°
2026-04-18 04:44 24.72922 118.20167 27961 ft 423 kts 230°
2026-04-18 04:45 24.70880 118.17835 28241 ft 424 kts 230°
2026-04-18 04:45 24.68855 118.15525 28515 ft 425 kts 230°
2026-04-18 04:45 24.67469 118.13947 28697 ft 425 kts 230°
2026-04-18 04:45 24.65410 118.11604 28954 ft 426 kts 230°
2026-04-18 04:46 24.62660 118.08480 29373 ft 425 kts 230°
2026-04-18 04:46 24.61300 118.06935 29605 ft 424 kts 230°
2026-04-18 04:46 24.59252 118.04613 29958 ft 423 kts 230°
2026-04-18 04:47 24.55230 118.00051 30061 ft 407 kts 231°
2026-04-18 04:47 24.51442 117.95501 30055 ft 402 kts 232°
2026-04-18 04:48 24.47731 117.90931 30058 ft 401 kts 233°
2026-04-18 04:48 24.43995 117.86376 30059 ft 401 kts 232°
2026-04-18 04:49 24.40235 117.81849 30024 ft 402 kts 231°
2026-04-18 04:49 24.36459 117.77315 30032 ft 403 kts 231°
2026-04-18 04:50 24.32679 117.72771 30033 ft 403 kts 231°
2026-04-18 04:50 24.28871 117.68186 30047 ft 404 kts 231°
2026-04-18 04:51 24.25087 117.63639 30047 ft 403 kts 231°
2026-04-18 04:51 24.21306 117.59095 30041 ft 404 kts 231°
2026-04-18 04:52 24.17517 117.54551 30034 ft 404 kts 231°
2026-04-18 04:52 24.13699 117.50029 30036 ft 406 kts 228°
2026-04-18 04:53 24.09488 117.45879 30049 ft 407 kts 226°
2026-04-18 04:53 24.05265 117.41744 30049 ft 407 kts 226°
2026-04-18 04:54 24.01052 117.37613 30054 ft 407 kts 226°
2026-04-18 04:54 23.96838 117.33479 30052 ft 407 kts 226°
2026-04-18 04:55 23.92627 117.29350 30029 ft 407 kts 226°
2026-04-18 04:55 23.88404 117.25218 30041 ft 408 kts 226°
2026-04-18 04:56 23.82048 117.19019 30041 ft 409 kts 225°
2026-04-18 04:56 23.77799 117.14886 30066 ft 409 kts 226°
2026-04-18 04:57 23.73680 117.10628 30062 ft 406 kts 229°
2026-04-18 04:57 23.69815 117.06148 30043 ft 405 kts 230°
2026-04-18 04:58 23.65974 117.01626 30041 ft 407 kts 230°
2026-04-18 04:58 23.62071 116.97144 30037 ft 408 kts 229°
2026-04-18 04:59 23.58121 116.92678 30042 ft 409 kts 229°
2026-04-18 04:59 23.54163 116.88206 30044 ft 409 kts 229°
2026-04-18 05:00 23.50207 116.83724 30058 ft 409 kts 229°
2026-04-18 05:00 23.46270 116.79261 30039 ft 408 kts 229°
2026-04-18 05:01 23.42081 116.75061 30039 ft 413 kts 221°
2026-04-18 05:01 23.37520 116.71257 30036 ft 414 kts 221°
2026-04-18 05:02 23.32933 116.67462 30040 ft 414 kts 221°
2026-04-18 05:02 23.28345 116.63665 30042 ft 414 kts 221°
2026-04-18 05:03 23.23768 116.59862 30044 ft 414 kts 221°
2026-04-18 05:03 23.19184 116.56056 30041 ft 415 kts 221°
2026-04-18 05:04 23.14593 116.52250 30045 ft 415 kts 221°
2026-04-18 05:04 23.10005 116.48451 30045 ft 415 kts 221°
2026-04-18 05:05 23.05409 116.44655 30051 ft 415 kts 221°
2026-04-18 05:05 23.00808 116.40861 30057 ft 415 kts 221°
2026-04-18 05:06 22.96748 116.36518 30055 ft 408 kts 238°
2026-04-18 05:06 22.94554 116.30923 30048 ft 405 kts 258°
2026-04-18 05:07 22.93873 116.24862 30051 ft 405 kts 262°
2026-04-18 05:07 22.93245 116.18792 30049 ft 405 kts 262°
2026-04-18 05:08 22.92613 116.12685 30048 ft 405 kts 262°
2026-04-18 05:08 22.91978 116.06615 30047 ft 405 kts 262°
2026-04-18 05:09 22.91353 116.00549 30046 ft 405 kts 262°
2026-04-18 05:09 22.90720 115.94485 30052 ft 405 kts 262°
2026-04-18 05:10 22.90084 115.88420 30061 ft 404 kts 262°
2026-04-18 05:10 22.89447 115.82365 30063 ft 404 kts 262°
2026-04-18 05:11 22.88816 115.76323 30061 ft 403 kts 262°
2026-04-18 05:11 22.88185 115.70276 30053 ft 403 kts 262°
2026-04-18 05:12 22.87544 115.64234 30054 ft 403 kts 262°
2026-04-18 05:12 22.86904 115.58193 30058 ft 403 kts 263°
2026-04-18 05:13 22.86284 115.52154 30060 ft 403 kts 263°
2026-04-18 05:13 22.85689 115.46108 30059 ft 403 kts 263°
2026-04-18 05:14 22.85084 115.40069 30036 ft 404 kts 263°
2026-04-18 05:14 22.84463 115.33991 30033 ft 406 kts 263°
2026-04-18 05:15 22.83840 115.27895 30038 ft 407 kts 263°
2026-04-18 05:15 22.83220 115.21797 30039 ft 407 kts 263°
2026-04-18 05:16 22.82590 115.15684 30039 ft 408 kts 262°
2026-04-18 05:16 22.81963 115.09567 30045 ft 408 kts 263°
2026-04-18 05:17 22.81334 115.03450 30046 ft 409 kts 262°
2026-04-18 05:17 22.80699 114.97333 30050 ft 408 kts 262°
2026-04-18 05:18 22.80168 114.92210 30055 ft 408 kts 262°
2026-04-18 05:18 22.79427 114.85096 30051 ft 409 kts 262°
2026-04-18 05:19 22.78776 114.78970 30053 ft 409 kts 262°
2026-04-18 05:19 22.78233 114.73836 30054 ft 409 kts 262°
2026-04-18 05:20 22.77604 114.67711 30060 ft 409 kts 263°
2026-04-18 05:20 22.76981 114.61526 30066 ft 420 kts 263°
2026-04-18 05:21 22.76342 114.55184 30067 ft 425 kts 263°
2026-04-18 05:21 22.76018 114.52001 29488 ft 424 kts 263°
2026-04-18 05:21 22.75696 114.48846 28828 ft 421 kts 263°
2026-04-18 05:22 22.75375 114.45701 28175 ft 417 kts 263°
2026-04-18 05:22 22.75054 114.42593 27542 ft 415 kts 263°
2026-04-18 05:22 22.74735 114.39498 26927 ft 412 kts 263°
2026-04-18 05:22 22.74419 114.36424 26316 ft 409 kts 263°
2026-04-18 05:23 22.74105 114.33369 25719 ft 407 kts 263°
2026-04-18 05:23 22.73793 114.30334 25133 ft 405 kts 264°
2026-04-18 05:23 22.73482 114.27311 24564 ft 403 kts 264°
2026-04-18 05:23 22.73170 114.24306 24008 ft 401 kts 264°
2026-04-18 05:24 22.72859 114.21318 23453 ft 399 kts 264°
2026-04-18 05:24 22.72551 114.18343 22796 ft 396 kts 264°
2026-04-18 05:24 22.72243 114.15381 22154 ft 394 kts 264°
2026-04-18 05:24 22.71936 114.12437 21529 ft 392 kts 264°
2026-04-18 05:25 22.71630 114.09509 20921 ft 391 kts 264°
2026-04-18 05:25 22.71325 114.06592 20316 ft 389 kts 264°
2026-04-18 05:25 22.70925 114.03702 19727 ft 387 kts 257°
2026-04-18 05:25 22.70053 114.00950 19153 ft 386 kts 248°
2026-04-18 05:26 22.69034 113.98262 18592 ft 385 kts 248°
2026-04-18 05:26 22.68005 113.95551 17991 ft 384 kts 248°
2026-04-18 05:26 22.66992 113.92876 17351 ft 383 kts 248°
2026-04-18 05:26 22.65983 113.90210 16724 ft 382 kts 249°
2026-04-18 05:27 22.64976 113.87550 16111 ft 381 kts 249°
2026-04-18 05:27 22.63969 113.84897 15509 ft 380 kts 249°
2026-04-18 05:27 22.62965 113.82250 14912 ft 379 kts 249°
2026-04-18 05:27 22.61966 113.79613 14335 ft 378 kts 249°
2026-04-18 05:28 22.60977 113.76983 13764 ft 377 kts 249°
2026-04-18 05:28 22.59998 113.74364 13133 ft 375 kts 249°
2026-04-18 05:28 22.59023 113.71750 12506 ft 374 kts 249°
2026-04-18 05:28 22.58051 113.69150 11894 ft 372 kts 249°
2026-04-18 05:29 22.57079 113.66560 11292 ft 370 kts 249°
2026-04-18 05:29 22.56112 113.63984 10696 ft 369 kts 249°
2026-04-18 05:29 22.55146 113.61422 10165 ft 366 kts 249°
2026-04-18 05:29 22.54132 113.58950 9981 ft 353 kts 242°
2026-04-18 05:30 22.52629 113.56929 9958 ft 338 kts 223°
2026-04-18 05:30 22.50614 113.55737 9915 ft 327 kts 202°
2026-04-18 05:30 22.48469 113.55007 9521 ft 317 kts 199°
2026-04-18 05:30 22.46405 113.54312 9145 ft 305 kts 200°
2026-04-18 05:31 22.44409 113.53643 8776 ft 294 kts 200°
2026-04-18 05:31 22.42509 113.53007 8406 ft 285 kts 200°
2026-04-18 05:31 22.40640 113.52390 8044 ft 276 kts 200°
2026-04-18 05:31 22.38821 113.51804 7681 ft 269 kts 199°
2026-04-18 05:32 22.37053 113.51246 7323 ft 261 kts 199°
2026-04-18 05:32 22.35290 113.50698 6967 ft 260 kts 199°
2026-04-18 05:32 22.33555 113.50163 6616 ft 259 kts 199°
2026-04-18 05:32 22.31818 113.49630 6265 ft 259 kts 199°
2026-04-18 05:33 22.30083 113.49098 5892 ft 259 kts 198°
2026-04-18 05:33 22.28348 113.48567 5524 ft 259 kts 198°
2026-04-18 05:33 22.26616 113.48037 5154 ft 259 kts 199°
2026-04-18 05:33 22.24884 113.47506 4789 ft 259 kts 198°
2026-04-18 05:34 22.23139 113.47007 4417 ft 259 kts 192°
2026-04-18 05:34 22.21360 113.46949 4044 ft 255 kts 174°
2026-04-18 05:34 22.19650 113.47370 3685 ft 250 kts 167°
2026-04-18 05:34 22.17979 113.47845 3316 ft 246 kts 167°
2026-04-18 05:35 22.16336 113.48307 2947 ft 242 kts 167°
2026-04-18 05:35 22.14703 113.48763 2637 ft 241 kts 167°
2026-04-18 05:35 22.13086 113.49165 2434 ft 235 kts 177°
2026-04-18 05:35 22.11522 113.48900 2286 ft 224 kts 206°
2026-04-18 05:36 22.10314 113.47938 2116 ft 211 kts 227°
2026-04-18 05:36 22.09304 113.46842 2028 ft 199 kts 226°
2026-04-18 05:36 22.08354 113.45824 1796 ft 188 kts 226°
2026-04-18 05:36 22.07452 113.44861 1527 ft 177 kts 225°
2026-04-18 05:37 22.06611 113.43967 1317 ft 164 kts 225°
2026-04-18 05:37 22.05838 113.43146 1080 ft 151 kts 225°
2026-04-18 05:37 22.05100 113.42361 902 ft 148 kts 226°
2026-04-18 05:37 22.04362 113.41576 707 ft 148 kts 226°
2026-04-18 05:38 22.03632 113.40799 474 ft 147 kts 226°
2026-04-18 05:38 22.02896 113.40024 268 ft 148 kts 225°
2026-04-18 05:38 22.02158 113.39243 97 ft 149 kts 225°
2026-04-18 05:38 22.01440 113.38473 50 ft 143 kts 226°
2026-04-18 05:39 22.00657 113.37637 419 ft 172 kts 225°
2026-04-18 05:39 21.99705 113.36672 891 ft 201 kts 221°
2026-04-18 05:39 21.98418 113.35951 1531 ft 217 kts 197°
2026-04-18 05:39 21.96896 113.35839 1938 ft 229 kts 171°
2026-04-18 05:40 21.95463 113.36584 1989 ft 234 kts 139°
2026-04-18 05:40 21.94578 113.38047 1989 ft 236 kts 107°
2026-04-18 05:40 21.94528 113.39799 1991 ft 238 kts 75°
2026-04-18 05:40 21.95291 113.41312 1992 ft 231 kts 51°
2026-04-18 05:41 21.96346 113.42622 1992 ft 232 kts 47°
2026-04-18 05:41 21.97433 113.43905 1988 ft 232 kts 46°
2026-04-18 05:41 21.98516 113.45187 1987 ft 231 kts 46°
2026-04-18 05:41 21.99602 113.46472 1982 ft 231 kts 46°
2026-04-18 05:42 22.00718 113.47692 1976 ft 223 kts 36°
2026-04-18 05:42 22.02054 113.48444 1789 ft 212 kts
2026-04-18 05:42 22.03415 113.48277 1556 ft 189 kts 331°
2026-04-18 05:42 22.04353 113.47410 1323 ft 171 kts 311°
2026-04-18 05:43 22.05131 113.46493 1063 ft 162 kts 309°
2026-04-18 05:43 22.05720 113.45500 921 ft 151 kts 291°
2026-04-18 05:43 22.05877 113.44415 896 ft 145 kts 264°
2026-04-18 05:43 22.05718 113.43346 873 ft 144 kts 256°
2026-04-18 05:44 22.05273 113.42392 858 ft 144 kts 235°
2026-04-18 05:44 22.04589 113.41590 852 ft 146 kts 221°
2026-04-18 05:44 22.03782 113.40930 761 ft 145 kts 220°
2026-04-18 05:44 22.03038 113.40193 531 ft 145 kts 231°
2026-04-18 05:45 22.02326 113.39406 248 ft 148 kts 224°
2026-04-18 05:45 22.01593 113.38635 31 ft 144 kts 223°
2026-04-18 05:45 22.00971 113.37980 26 ft 101 kts 224°
2026-04-18 05:45 22.00617 113.37604 30 ft 46 kts 225°
2026-04-18 05:46 22.00468 113.37406 28 ft 30 kts 252°
2026-04-18 05:46 22.00444 113.37246 28 ft 17 kts 297°
2026-04-18 05:46 22.00530 113.37261 28 ft 14 kts 43°
2026-04-18 05:46 22.00599 113.37330 28 ft 12 kts 33°
2026-04-18 05:47 22.00661 113.37298 28 ft 10 kts 315°
2026-04-18 05:47 22.00707 113.37248 28 ft 9 kts 314°
2026-04-18 05:47 22.00741 113.37228 28 ft 4 kts
2026-04-18 05:47 22.00769 113.37234 28 ft 7 kts 13°
2026-04-18 05:48 22.00814 113.37246 28 ft 4 kts 15°
2026-04-18 05:48 22.00823 113.37249 28 ft 0 kts 15°
2026-04-18 05:48 22.00824 113.37249 28 ft 0 kts 15°
2026-04-18 05:51 22.04314 113.41525 682 ft 151 kts 225°
2026-04-18 05:51 22.03170 113.40306 291 ft 147 kts 225°
2026-04-18 05:52 22.02454 113.39533 206 ft 150 kts 225°
2026-04-18 05:52 22.01698 113.38760 36 ft 148 kts 225°
2026-04-18 05:52 22.05923 113.43236 1108 ft 152 kts 225°
2026-04-18 05:52 22.03786 113.40964 612 ft 162 kts 226°
2026-04-18 05:53 22.02993 113.40135 396 ft 154 kts 226°
2026-04-18 05:53 22.02243 113.39330 159 ft 151 kts 225°
2026-04-18 05:53 22.01510 113.38546 31 ft 142 kts 219°
2026-04-18 05:53 22.03237 113.40383 372 ft 144 kts 224°
2026-04-18 05:54 22.02514 113.39621 203 ft 147 kts 226°
2026-04-18 05:54 22.01778 113.38839 60 ft 149 kts 226°
2026-04-18 05:54 22.01068 113.38081 28 ft 135 kts 225°
2026-04-18 05:54 22.03658 113.40858 551 ft 137 kts 224°
2026-04-18 05:55 22.02934 113.40113 318 ft 146 kts 229°
2026-04-18 05:55 22.02227 113.39309 142 ft 149 kts 226°
2026-04-18 05:55 22.11634 113.48950 2277 ft 223 kts 204°
2026-04-18 05:55 22.03297 113.40449 370 ft 146 kts 225°
2026-04-18 05:56 22.02567 113.39679 227 ft 148 kts 225°
2026-04-18 05:56 22.01833 113.38897 52 ft 148 kts 224°
2026-04-18 05:56 22.03510 113.40668 446 ft 144 kts 225°
2026-04-18 05:56 22.02788 113.39907 261 ft 147 kts 225°
2026-04-18 05:57 22.11624 113.48946 2278 ft 224 kts 204°
2026-04-18 05:57 22.03214 113.40362 368 ft 146 kts 224°
2026-04-18 05:57 22.02486 113.39590 224 ft 148 kts 226°
2026-04-18 05:58 22.01754 113.38809 46 ft 148 kts 225°
2026-04-18 05:58 22.11640 113.48953 2278 ft 223 kts 204°
2026-04-18 05:58 22.03036 113.40157 289 ft 146 kts 225°
2026-04-18 05:58 22.02301 113.39392 153 ft 148 kts 225°
2026-04-18 05:59 22.01564 113.38607 32 ft 141 kts 224°
2026-04-18 05:59 22.06908 113.44282 1421 ft 172 kts 225°
2026-04-18 05:59 22.02928 113.40047 289 ft 146 kts 225°
2026-04-18 05:59 22.02202 113.39288 125 ft 148 kts 225°
2026-04-18 06:00 22.01476 113.38514 31 ft 140 kts 221°
2026-04-18 06:00 22.03077 113.40216 315 ft 148 kts 225°
2026-04-18 06:00 22.02392 113.39495 170 ft 146 kts 224°
2026-04-18 06:00 22.01662 113.38717 31 ft 146 kts 225°
2026-04-18 06:01 22.11639 113.48952 2277 ft 224 kts 204°
2026-04-18 06:01 22.03711 113.40903 504 ft 146 kts 225°
2026-04-18 06:01 22.02993 113.40125 316 ft 147 kts 225°
2026-04-18 06:01 22.02260 113.39350 157 ft 148 kts 225°
2026-04-18 06:02 22.03360 113.40508 394 ft 144 kts 225°
2026-04-18 06:02 22.02397 113.39491 206 ft 149 kts 224°
2026-04-18 06:02 22.01899 113.38966 77 ft 148 kts 225°
2026-04-18 06:03 22.01192 113.38216 33 ft 133 kts 225°
2026-04-18 06:03 22.05038 113.42324 898 ft 143 kts 225°
2026-04-18 06:03 22.04283 113.41598 771 ft 146 kts 222°
2026-04-18 06:03 22.03534 113.40870 569 ft 145 kts 228°
2026-04-18 06:04 22.02874 113.40045 377 ft 146 kts 229°
2026-04-18 06:04 22.02166 113.39247 144 ft 148 kts 226°
2026-04-18 06:04 22.11604 113.48937 2278 ft 224 kts 204°
2026-04-18 06:04 22.02707 113.39831 209 ft 145 kts 224°
2026-04-18 06:05 22.01983 113.39058 63 ft 148 kts 225°
2026-04-18 06:05 22.01278 113.38307 35 ft 133 kts 224°
2026-04-18 06:05 22.03109 113.40250 317 ft 144 kts 224°
2026-04-18 06:05 22.02378 113.39485 163 ft 148 kts 227°
2026-04-18 06:06 22.01655 113.38703 32 ft 143 kts 223°
2026-04-18 06:06 22.00996 113.38007 33 ft 122 kts 224°
2026-04-18 06:06 22.00560 113.37547 30 ft 107 kts 224°